South Pass, WY

12:11 PM MDT on March 27, 2017 (GMT -0600)
South Pass

Weather History for KFWZ - September, 2013

Change the Weather History Date:

Friday, September 13, 2013

  Actual Average (KLND) Record (KLND)
Temperature  
Mean Temperature 53 °F -  
Max Temperature 60 °F 70 °F 89 °F (2015)
Min Temperature 46 °F 42 °F 25 °F (1914)
Degree Days  
Heating Degree Days 12    
Growing Degree Days 3 (Base 50)    
Moisture  
Dew Point 45 °F    
Average Humidity 78    
Maximum Humidity 100    
Minimum Humidity 48    
Precipitation  
Precipitation 0.00 in - - ()
Sea Level Pressure  
Sea Level Pressure 30.16 in    
Wind  
Wind Speed 4 mph (West)    
Max Wind Speed 10 mph    
Max Gust Speed 16 mph    
Visibility 8 miles    
Events Fog , Rain , Thunderstorm    
Averages and records for this station are not official NWS values.
T = Trace of Precipitation, MM = Missing Value Source: NWS Daily Summary

Daily Weather History Graph

Daily Weather History Graph

Search for Another Location

Airport or City:

Trip Planner

Search our weather history database for the weather conditions in past years. The results will help you decide how hot, cold, wet, or windy it might be!

Date:

Astronomy

Sep. 13, 2013 Rise Set
Actual Time 6:53 AM MDT 7:27 PM MDT
Civil Twilight 6:24 AM MDT 7:56 PM MDT
Nautical Twilight 5:51 AM MDT 8:29 PM MDT
Astronomical Twilight 5:16 AM MDT 9:03 PM MDT
Moon 3:25 PM MDT (9/13) 12:20 AM MDT (9/13)
Length of Visible Light 13h 31m
Length of Day
12h 34m
Waxing Gibbous, 62% of the Moon is Illuminated
Sep 13
Waxing Gibbous
Sep 19
Full
Sep 26
Last Quarter
Oct 4
New
Oct 11
First Quarter

Hourly Weather History & Observations

Time (MDT) Temp. Windchill Dew Point Humidity Pressure Visibility Wind Dir Wind Speed Gust Speed Precip Events Conditions
12:15 AM 50.0 °F - 44.6 °F 82% 30.28 in 10.0 mi North 5.8 mph - N/A   Overcast
12:35 AM 50.0 °F - 44.6 °F 82% 30.27 in 10.0 mi NE 4.6 mph - N/A   Overcast
12:55 AM 50.0 °F - 44.6 °F 82% 30.27 in 10.0 mi NE 3.5 mph - N/A   Overcast
1:15 AM 48.2 °F - 44.6 °F 87% 30.26 in 10.0 mi NNE 5.8 mph - N/A   Overcast
1:35 AM 46.4 °F 43.5 °F 44.6 °F 93% 30.25 in 0.5 mi North 5.8 mph - N/A Fog Fog
1:55 AM 48.2 °F - 46.4 °F 93% 30.25 in 10.0 mi NNE 4.6 mph - N/A   Unknown
2:15 AM 50.0 °F - 44.6 °F 82% 30.25 in 10.0 mi NE 4.6 mph - N/A   Unknown
2:35 AM 50.0 °F - 46.4 °F 87% 30.25 in 10.0 mi NE 3.5 mph - N/A   Unknown
2:55 AM 48.2 °F - 46.4 °F 93% 30.23 in 5.0 mi ENE 4.6 mph - N/A   Overcast
3:15 AM 48.2 °F - 46.4 °F 93% 30.23 in 3.0 mi Calm Calm - N/A   Mist
3:35 AM 48.2 °F - 46.4 °F 93% 30.23 in 0.5 mi Calm Calm - N/A Fog Fog
3:55 AM 50.0 °F - 48.2 °F 94% 30.23 in 0.5 mi Calm Calm - N/A Fog Fog
4:15 AM 48.2 °F - 48.2 °F 100% 30.21 in 0.8 mi North 3.5 mph - N/A   Mist
4:35 AM 48.2 °F - 46.4 °F 93% 30.23 in 5.0 mi Calm Calm - N/A   Mostly Cloudy
4:55 AM 48.2 °F - 46.4 °F 93% 30.21 in 7.0 mi NNE 3.5 mph - N/A   Overcast
5:15 AM 48.2 °F - 46.4 °F 93% 30.22 in 7.0 mi NE 4.6 mph - N/A   Overcast
5:35 AM 48.2 °F - 46.4 °F 93% 30.21 in 1.2 mi NNE 3.5 mph - N/A   Mostly Cloudy
5:55 AM 48.2 °F - 48.2 °F 100% 30.21 in 0.8 mi Calm Calm - N/A   Mostly Cloudy
6:15 AM 50.0 °F - 48.2 °F 94% 30.20 in 10.0 mi Calm Calm - N/A   Overcast
6:35 AM 50.0 °F - 48.2 °F 94% 30.20 in 7.0 mi Calm Calm - N/A   Overcast
6:55 AM 50.0 °F - 48.2 °F 94% 30.19 in 1.5 mi WNW 3.5 mph - N/A   Mostly Cloudy
7:15 AM 48.2 °F - 46.4 °F 93% 30.19 in 0.2 mi NW 3.5 mph - N/A Fog Fog
7:35 AM 48.2 °F - 46.4 °F 93% 30.19 in 0.2 mi ESE 4.6 mph - N/A Fog Fog
7:55 AM 50.0 °F - 48.2 °F 94% 30.19 in 0.2 mi East 4.6 mph - N/A Fog Fog
8:15 AM 50.0 °F - 48.2 °F 94% 30.19 in 0.2 mi ENE 3.5 mph - N/A Fog Fog
8:35 AM 50.0 °F - 48.2 °F 94% 30.20 in 0.2 mi Calm Calm - N/A Fog Fog
8:55 AM 48.2 °F - 48.2 °F 100% 30.20 in 0.2 mi Calm Calm - N/A Fog Fog
9:15 AM 48.2 °F - 48.2 °F 100% 30.20 in 0.2 mi Calm Calm - N/A Fog Fog
9:35 AM 50.0 °F - 48.2 °F 94% 30.20 in 0.2 mi SSE 3.5 mph - N/A Fog Fog
9:55 AM 50.0 °F - 48.2 °F 94% 30.20 in 0.5 mi South 4.6 mph - N/A   Unknown
10:15 AM 50.0 °F - 48.2 °F 94% 30.20 in 10.0 mi Calm Calm - N/A Thunderstorm Thunderstorm
10:35 AM 50.0 °F - 50.0 °F 100% 30.19 in 10.0 mi Calm Calm - N/A Thunderstorm Overcast
10:55 AM 50.0 °F - 46.4 °F 87% 30.19 in 10.0 mi Calm Calm - N/A   Overcast
11:15 AM 50.0 °F - 48.2 °F 94% 30.18 in 10.0 mi Calm Calm - N/A   Light Drizzle
11:35 AM 51.8 °F - 46.4 °F 82% 30.18 in 10.0 mi SW 6.9 mph - N/A Thunderstorm Drizzle
11:55 AM 51.8 °F - 46.4 °F 82% 30.17 in 10.0 mi WSW 5.8 mph - N/A   Drizzle
12:15 PM 51.8 °F - 46.4 °F 82% 30.16 in 10.0 mi West 5.8 mph - N/A Rain Light Rain
12:35 PM 53.6 °F - 44.6 °F 72% 30.16 in 10.0 mi West 4.6 mph - N/A   Overcast
12:55 PM 53.6 °F - 42.8 °F 67% 30.15 in 10.0 mi West 5.8 mph - N/A Rain Light Rain
1:15 PM 55.4 °F - 44.6 °F 67% 30.15 in 10.0 mi West 9.2 mph - N/A   Overcast
1:35 PM 53.6 °F - 42.8 °F 67% 30.15 in 10.0 mi WNW 8.1 mph - N/A   Overcast
1:55 PM 53.6 °F - 42.8 °F 67% 30.15 in 10.0 mi NW 8.1 mph - N/A Thunderstorm Overcast
2:15 PM 55.4 °F - 44.6 °F 67% 30.13 in 10.0 mi NW 10.4 mph - N/A Thunderstorm Overcast
2:35 PM 57.2 °F - 42.8 °F 59% 30.12 in 10.0 mi NNW 10.4 mph 16.1 mph N/A Thunderstorm Unknown
2:55 PM 59.0 °F - 41.0 °F 51% 30.12 in 10.0 mi NW 6.9 mph - N/A   Unknown
3:15 PM 59.0 °F - 41.0 °F 51% 30.12 in 10.0 mi Calm Calm - N/A   Unknown
3:35 PM 57.2 °F - 39.2 °F 51% 30.12 in 10.0 mi Calm Calm - N/A Thunderstorm Unknown
3:55 PM 60.8 °F - 41.0 °F 48% 30.10 in 10.0 mi SSW 3.5 mph - N/A   Unknown
4:15 PM 60.8 °F - 41.0 °F 48% 30.10 in 10.0 mi SW 5.8 mph - N/A   Unknown
4:35 PM 60.8 °F - 42.8 °F 52% 30.10 in 10.0 mi SSW 5.8 mph - N/A   Unknown
4:55 PM 60.8 °F - 42.8 °F 52% 30.10 in 10.0 mi SW 5.8 mph - N/A   Overcast
5:15 PM 60.8 °F - 44.6 °F 55% 30.09 in 10.0 mi SW 5.8 mph - N/A   Overcast
5:35 PM 59.0 °F - 44.6 °F 59% 30.09 in 10.0 mi South 4.6 mph - N/A   Overcast
5:55 PM 59.0 °F - 44.6 °F 59% 30.09 in 10.0 mi South 8.1 mph - N/A   Overcast
6:15 PM 59.0 °F - 44.6 °F 59% 30.08 in 10.0 mi South 8.1 mph - N/A   Overcast
6:35 PM 59.0 °F - 44.6 °F 59% 30.08 in 10.0 mi South 8.1 mph - N/A   Overcast
6:55 PM 57.2 °F - 44.6 °F 63% 30.09 in 10.0 mi South 10.4 mph - N/A Thunderstorm Thunderstorm
7:15 PM 55.4 °F - 44.6 °F 67% 30.09 in 10.0 mi SSW 5.8 mph - N/A Thunderstorm Thunderstorm
7:35 PM 53.6 °F - 46.4 °F 77% 30.09 in 10.0 mi WSW 8.1 mph - N/A   Overcast
7:55 PM 53.6 °F - 44.6 °F 72% 30.09 in 10.0 mi West 8.1 mph - N/A   Overcast
8:15 PM 53.6 °F - 42.8 °F 67% 30.08 in 10.0 mi West 3.5 mph - N/A   Overcast
8:35 PM 53.6 °F - 42.8 °F 67% 30.09 in 10.0 mi WSW 4.6 mph - N/A Thunderstorm Overcast
8:55 PM 53.6 °F - 42.8 °F 67% 30.09 in 10.0 mi WSW 3.5 mph - N/A   Overcast
9:15 PM 53.6 °F - 42.8 °F 67% 30.09 in 10.0 mi WSW 5.8 mph - N/A   Overcast
9:35 PM 51.8 °F - 42.8 °F 71% 30.09 in 10.0 mi WSW 5.8 mph - N/A   Overcast
9:55 PM 51.8 °F - 42.8 °F 71% 30.09 in 10.0 mi West 5.8 mph - N/A   Overcast
10:15 PM 53.6 °F - 42.8 °F 67% 30.09 in 10.0 mi WSW 5.8 mph - N/A   Overcast
10:35 PM 51.8 °F - 42.8 °F 71% 30.09 in 10.0 mi West 4.6 mph - N/A   Overcast
10:55 PM 53.6 °F - 42.8 °F 67% 30.09 in 10.0 mi West 5.8 mph - N/A   Overcast
11:15 PM 53.6 °F - 42.8 °F 67% 30.09 in 10.0 mi West 5.8 mph - N/A   Overcast
11:35 PM 53.6 °F - 42.8 °F 67% 30.09 in 10.0 mi West 5.8 mph - N/A   Overcast
11:55 PM 53.6 °F - 42.8 °F 67% 30.09 in 10.0 mi West 3.5 mph - N/A   Overcast